Location: Boone Canyon
(38.3180°N, 119.2504°W)
Time: 16:51:20
(UTC+00:00)

NOSS 3-3 (A) - Pass Details

Date: 18 September 2020
Orbit: 822 x 1390 km, 63.4° (Epoch: 13 October)

Event Time Altitude Azimuth Distance (km) Brightness Sun altitude
Exits shadow 12:15:15 27° 233° (SW) 1,628 4.6 -17.5°
Maximum altitude 12:18:29 63° 306° (NW) 1,009 3.9 -16.9°
Drops below altitude 10° 12:24:49 10° 28° (NNE) 2,774 7.0 -15.7°
Sets 12:27:38 0° 31° (NNE) 3,815 7.8 -15.2°
